Location: Lombard
(41.8800°N, 88.0080°W)
Time: 16:28:11
(UTC-06:00)

Vanguard 3 - Pass Details

Date: 18 December 2023
Orbit: 508 x 3239 km, 33.4° (Epoch: 23 February)

Event Time Altitude Azimuth Distance (km) Brightness Sun altitude
Rises 17:39:54 0° 240° (WSW) 6,983 13.7 -13.8°
Reaches altitude 10° 17:44:32 10° 237° (WSW) 6,097 12.9 -14.6°
Maximum altitude 18:03:37 57° 165° (SSE) 3,397 10.2 -18.0°
Enters shadow 18:15:14 22° 98° (E) 4,292 10.2 -20.1°
